This is the latest recevied weather packets stored in our database for station/object SP3WRO-2. If no packets are shown the sender has not sent any weather packets the latest 10 day(s).
| Time | Temp. | Humidity | Pressure | Rain* | Wind** | Luminosity | Snow |
|---|---|---|---|---|---|---|---|
| 1787787709 | 13.89° C | 83% | 1019.9 hPa | - | - | - | - |
| 1787786809 | 14.44° C | 82% | 1019.8 hPa | - | - | - | - |
| 1787785907 | 14.44° C | 80% | 1019.8 hPa | - | - | - | - |
| 1787785006 | 14.44° C | 80% | 1019.9 hPa | - | - | - | - |
| 1787784105 | 14.44° C | 79% | 1019.9 hPa | - | - | - | - |
| 1787783205 | 15° C | 79% | 1019.8 hPa | - | - | - | - |
| 1787782304 | 15° C | 77% | 1019.9 hPa | - | - | - | - |
| 1787781403 | 15.56° C | 77% | 1019.8 hPa | - | - | - | - |
| 1787780501 | 15.56° C | 76% | 1019.8 hPa | - | - | - | - |
| 1787779600 | 15.56° C | 74% | 1019.8 hPa | - | - | - | - |
| 1787778699 | 16.11° C | 73% | 1019.7 hPa | - | - | - | - |
| 1787777798 | 16.11° C | 73% | 1019.6 hPa | - | - | - | - |
| 1787776897 | 15.56° C | 74% | 1019.6 hPa | - | - | - | - |
| 1787775996 | 15° C | 76% | 1019.4 hPa | - | - | - | - |
| 1787775096 | 15° C | 76% | 1019.3 hPa | - | - | - | - |
| 1787774194 | 14.44° C | 80% | 1019.3 hPa | - | - | - | - |
| 1787773294 | 13.89° C | 85% | 1019.1 hPa | - | - | - | - |
| 1787772392 | 13.33° C | 89% | 1019 hPa | - | - | - | - |
| 1787771491 | 13.89° C | 89% | 1019.1 hPa | - | - | - | - |
| 1787770591 | 14.44° C | 88% | 1019 hPa | - | - | - | - |
| 1787769690 | 14.44° C | 87% | 1018.9 hPa | - | - | - | - |
| 1787768789 | 15° C | 85% | 1018.8 hPa | - | - | - | - |
| 1787767888 | 15.56° C | 82% | 1018.6 hPa | - | - | - | - |
| 1787766987 | 17.22° C | 71% | 1018.5 hPa | - | - | 4 W/m² | - |
| 1787766086 | 18.33° C | 66% | 1018.5 hPa | - | - | 10 W/m² | - |
* Rain since midnight (hover to see other rain measurements)
** Current wind speed in m/s (hover to see current wind gust speed)